TimeCST,TemperatureF,Dew PointF,Humidity,Sea Level PressureIn,VisibilityMPH,Wind Direction,Wind SpeedMPH,Gust SpeedMPH,PrecipitationIn,Events,Conditions,WindDirDegrees,DateUTC
12:48 AM,30.2,30.2,100,30.20,2.0,Calm,Calm,-,N/A,,Clear,0,2012-11-08 06:48:00
12:52 AM,32.0,30.0,92,30.21,2.0,Calm,Calm,-,N/A,,Clear,0,2012-11-08 06:52:00
1:06 AM,33.8,30.2,87,30.20,4.0,Calm,Calm,-,N/A,,Clear,0,2012-11-08 07:06:00
1:52 AM,32.0,30.9,96,30.22,4.0,Calm,Calm,-,N/A,,Clear,0,2012-11-08 07:52:00
2:52 AM,30.9,30.0,96,30.22,4.0,Calm,Calm,-,N/A,,Clear,0,2012-11-08 08:52:00
3:52 AM,30.0,28.9,96,30.22,3.0,Calm,Calm,-,N/A,,Clear,0,2012-11-08 09:52:00
4:11 AM,30.2,26.6,86,30.22,1.5,Calm,Calm,-,N/A,,Clear,0,2012-11-08 10:11:00
4:23 AM,30.2,28.4,93,30.22,3.0,Calm,Calm,-,N/A,,Clear,0,2012-11-08 10:23:00
4:29 AM,30.2,28.4,93,30.22,1.8,Calm,Calm,-,N/A,,Clear,0,2012-11-08 10:29:00
4:52 AM,28.9,28.0,96,30.24,5.0,Calm,Calm,-,N/A,,Clear,0,2012-11-08 10:52:00
5:52 AM,28.9,28.0,96,30.25,5.0,Calm,Calm,-,N/A,,Clear,0,2012-11-08 11:52:00
6:52 AM,28.9,28.0,96,30.25,2.5,Calm,Calm,-,N/A,,Clear,0,2012-11-08 12:52:00
7:18 AM,30.2,28.4,93,30.25,4.0,Calm,Calm,-,N/A,,Clear,0,2012-11-08 13:18:00
7:52 AM,34.0,32.0,92,30.27,5.0,Calm,Calm,-,N/A,,Clear,0,2012-11-08 13:52:00
8:52 AM,39.9,36.0,86,30.28,8.0,Calm,Calm,-,N/A,,Clear,0,2012-11-08 14:52:00
9:52 AM,48.0,39.0,71,30.28,7.0,SSE,4.6,-,N/A,,Clear,160,2012-11-08 15:52:00
10:52 AM,51.1,37.9,61,30.26,10.0,SSW,5.8,-,N/A,,Partly Cloudy,200,2012-11-08 16:52:00
11:52 AM,54.0,37.0,53,30.23,10.0,SW,9.2,-,N/A,,Scattered Clouds,230,2012-11-08 17:52:00
12:36 PM,53.6,35.6,51,30.20,0.5,South,11.5,-,N/A,,Haze,180,2012-11-08 18:36:00
12:45 PM,53.6,35.6,51,30.20,-9999.0,South,8.1,-,N/A,,Clear,180,2012-11-08 18:45:00
12:52 PM,55.0,36.0,49,30.20,-9999.0,SSW,6.9,-,N/A,,Clear,200,2012-11-08 18:52:00
1:52 PM,55.9,35.1,45,30.18,10.0,South,6.9,-,N/A,,Clear,190,2012-11-08 19:52:00
2:52 PM,57.0,37.0,47,30.16,10.0,South,5.8,-,N/A,,Clear,180,2012-11-08 20:52:00
3:52 PM,55.0,37.0,51,30.17,10.0,SSW,6.9,-,N/A,,Clear,200,2012-11-08 21:52:00
4:52 PM,51.1,37.0,59,30.16,10.0,South,6.9,-,N/A,,Clear,170,2012-11-08 22:52:00
6:52 PM,43.0,36.0,76,30.17,10.0,SSE,3.5,-,N/A,,Clear,150,2012-11-09 00:52:00
7:52 PM,42.1,35.1,76,30.16,10.0,Calm,Calm,-,N/A,,Clear,0,2012-11-09 01:52:00
8:52 PM,43.0,36.0,76,30.15,10.0,SSE,4.6,-,N/A,,Clear,160,2012-11-09 02:52:00
9:52 PM,39.9,35.1,83,30.14,10.0,SSE,3.5,-,N/A,,Clear,150,2012-11-09 03:52:00
10:52 PM,37.9,34.0,86,30.13,10.0,SE,5.8,-,N/A,,Clear,140,2012-11-09 04:52:00
11:52 PM,41.0,35.1,79,30.14,10.0,South,3.5,-,N/A,,Clear,170,2012-11-09 05:52:00